| time (UTC) | temp F | wind direction | speed knots | gust knots | rain 1hr in | rain 24hr in | rain mn in | humidity % | barometer mb |
| 20260906072021 | 72 | 44 | 2.6 | 7.8 | 0.00 | 0.00 | 0.00 | 88 | 1017.0 |
| 20260906070521 | 72 | 60 | 1.7 | 7.0 | 0.00 | 0.00 | 0.00 | 88 | 1016.9 |
| 20260906065706 | 72 | 342 | 2.6 | 6.1 | 0.00 | 0.00 | 0.00 | 88 | 1016.9 |
| 20260906063510 | 72 | 74 | 1.7 | 6.1 | 0.00 | 0.00 | 0.00 | 88 | 1017.4 |
| 20260906062010 | 73 | 74 | 0.9 | 3.5 | 0.00 | 0.00 | 0.00 | 88 | 1017.1 |
| 20260906060510 | 73 | 40 | 0.9 | 6.1 | 0.00 | 0.00 | 0.00 | 88 | 1017.4 |
| 20260906053448 | 73 | 38 | 0.9 | 4.3 | 0.00 | 0.00 | 0.00 | 87 | 1017.3 |
| 20260906051946 | 73 | 72 | 0.9 | 3.5 | 0.00 | 0.00 | 0.00 | 87 | 1017.3 |
| 20260906050446 | 73 | 74 | 0.9 | 4.3 | 0.00 | 0.00 | 0.00 | 88 | 1017.0 |
| 20260906044943 | 73 | 71 | 1.7 | 4.3 | 0.00 | 0.00 | 0.00 | 88 | 1016.9 |
| 20260906043444 | 73 | 61 | 0.9 | 5.2 | 0.00 | 0.00 | 0.00 | 88 | 1016.8 |
| 20260906041942 | 73 | 32 | 0.9 | 4.3 | 0.00 | 0.00 | 0.00 | 88 | 1016.5 |
| 20260906041135 | 74 | 74 | 0.9 | 3.5 | 0.00 | 0.00 | 0.00 | 87 | 1016.6 |
| 20260906034940 | 74 | 70 | 0.0 | 3.5 | 0.00 | 0.00 | 0.00 | 86 | 1016.4 |
| 20260906034129 | 74 | 65 | 0.9 | 3.5 | 0.00 | 0.00 | 0.00 | 86 | 1016.4 |
| 20260906031923 | 74 | 59 | 0.9 | 2.6 | 0.00 | 0.00 | 0.00 | 85 | 1016.4 |
| 20260906030423 | 75 | 72 | 1.7 | 6.1 | 0.00 | 0.00 | 0.00 | 85 | 1016.2 |
| 20260906024924 | 75 | 55 | 2.6 | 7.0 | 0.00 | 0.00 | 0.00 | 84 | 1016.2 |
| 20260906023422 | 76 | 92 | 1.7 | 9.6 | 0.00 | 0.00 | 0.00 | 84 | 1016.1 |
| 20260906021920 | 76 | 103 | 3.5 | 10.4 | 0.00 | 0.00 | 0.00 | 83 | 1015.6 |
| 20260906021043 | 77 | 0 | 2.6 | 7.0 | 0.00 | 0.00 | 0.00 | 83 | 1015.5 |
| 20260906014851 | 77 | 80 | 1.7 | 7.8 | 0.00 | 0.00 | 0.00 | 83 | 1015.4 |
| 20260906013351 | 78 | 32 | 1.7 | 4.3 | 0.00 | 0.00 | 0.00 | 83 | 1015.2 |
| 20260906011851 | 78 | 71 | 1.7 | 6.1 | 0.00 | 0.00 | 0.00 | 82 | 1015.0 |
| 20260906010349 | 79 | 44 | 1.7 | 6.1 | 0.00 | 0.00 | 0.00 | 82 | 1015.0 |
| 20260906004849 | 80 | 55 | 2.6 | 7.8 | 0.00 | 0.00 | 0.00 | 81 | 1015.0 |
| 20260906003346 | 81 | 53 | 3.5 | 8.7 | 0.00 | 0.00 | 0.00 | 80 | 1014.9 |
| 20260906001846 | 82 | 67 | 3.5 | 10.4 | 0.00 | 0.00 | 0.00 | 80 | 1014.9 |
| 20260906000344 | 83 | 49 | 4.3 | 11.3 | 0.00 | 0.00 | 0.00 | 79 | 1014.7 |
| 20260905234845 | 84 | 24 | 3.5 | 10.4 | 0.00 | 0.00 | 0.00 | 78 | 1014.7 |
| 20260905231826 | 88 | 71 | 2.6 | 11.3 | 0.00 | 0.00 | 0.00 | 74 | 1014.4 |
| 20260905230325 | 89 | 13 | 2.6 | 7.8 | 0.00 | 0.00 | 0.00 | 71 | 1014.2 |
| 20260905224822 | 89 | 61 | 1.7 | 7.8 | 0.00 | 0.00 | 0.00 | 69 | 1014.1 |
| 20260905223321 | 90 | 48 | 1.7 | 7.0 | 0.00 | 0.00 | 0.00 | 71 | 1014.0 |
| 20260905222523 | 90 | 55 | 1.7 | 7.8 | 0.00 | 0.00 | 0.00 | 69 | 1013.8 |
| 20260905221011 | 91 | 55 | 2.6 | 7.0 | 0.00 | 0.00 | 0.00 | 69 | 1013.9 |
| 20260905214818 | 91 | 82 | 1.7 | 5.2 | 0.00 | 0.00 | 0.00 | 72 | 1014.0 |
| 20260905213316 | 90 | 43 | 1.7 | 7.0 | 0.00 | 0.00 | 0.00 | 69 | 1014.0 |
| 20260905211816 | 91 | 5 | 1.7 | 7.0 | 0.00 | 0.00 | 0.00 | 71 | 1014.1 |
| 20260905210317 | 93 | 41 | 1.7 | 7.0 | 0.00 | 0.00 | 0.00 | 67 | 1014.2 |
| 20260905204815 | 93 | 56 | 1.7 | 4.3 | 0.00 | 0.00 | 0.00 | 66 | 1014.3 |
| 20260905203312 | 93 | 67 | 1.7 | 5.2 | 0.00 | 0.00 | 0.00 | 65 | 1014.4 |
| 20260905201811 | 92 | 43 | 1.7 | 5.2 | 0.00 | 0.00 | 0.00 | 69 | 1014.6 |
| 20260905200310 | 92 | 345 | 1.7 | 8.7 | 0.00 | 0.00 | 0.00 | 68 | 1014.6 |
| 20260905194810 | 91 | 36 | 1.7 | 4.3 | 0.00 | 0.00 | 0.00 | 72 | 1014.9 |
| 20260905192504 | 90 | 77 | 1.7 | 6.1 | 0.00 | 0.00 | 0.00 | 70 | 1015.0 |
| 20260905190303 | 90 | 61 | 1.7 | 5.2 | 0.00 | 0.00 | 0.00 | 73 | 1015.1 |
| 20260905184800 | 90 | 112 | 2.6 | 6.1 | 0.00 | 0.00 | 0.00 | 72 | 1015.1 |
| 20260905183300 | 90 | 18 | 2.6 | 7.0 | 0.00 | 0.00 | 0.00 | 74 | 1015.3 |
| 20260905181800 | 90 | 96 | 1.7 | 7.0 | 0.00 | 0.00 | 0.00 | 73 | 1015.4 |
| 20260905180300 | 90 | 51 | 1.7 | 5.2 | 0.00 | 0.00 | 0.00 | 74 | 1015.3 |
| 20260905174758 | 90 | 15 | 1.7 | 5.2 | 0.00 | 0.00 | 0.00 | 72 | 1015.3 |
| 20260905173258 | 90 | 57 | 1.7 | 5.2 | 0.00 | 0.00 | 0.00 | 71 | 1015.4 |
| 20260905171756 | 91 | 31 | 2.6 | 7.8 | 0.00 | 0.00 | 0.00 | 71 | 1015.3 |
| 20260905170944 | 91 | 18 | 2.6 | 4.3 | 0.00 | 0.00 | 0.00 | 71 | 1015.4 |
| 20260905164754 | 91 | 67 | 1.7 | 6.1 | 0.00 | 0.00 | 0.00 | 69 | 1015.6 |
| 20260905163254 | 90 | 14 | 1.7 | 5.2 | 0.00 | 0.00 | 0.00 | 70 | 1015.8 |
| 20260905161753 | 90 | 5 | 1.7 | 5.2 | 0.00 | 0.00 | 0.00 | 70 | 1015.7 |
| 20260905160252 | 90 | 331 | 2.6 | 6.1 | 0.00 | 0.00 | 0.00 | 71 | 1015.6 |
| 20260905154751 | 90 | 9 | 1.7 | 4.3 | 0.00 | 0.00 | 0.00 | 73 | 1015.5 |
| 20260905153244 | 89 | 32 | 1.7 | 5.2 | 0.00 | 0.00 | 0.00 | 73 | 1015.4 |
| 20260905151742 | 87 | 17 | 1.7 | 5.2 | 0.00 | 0.00 | 0.00 | 77 | 1015.3 |
| 20260905150240 | 86 | 311 | 1.7 | 4.3 | 0.00 | 0.00 | 0.00 | 75 | 1015.2 |
| 20260905144719 | 85 | 110 | 0.9 | 5.2 | 0.00 | 0.00 | 0.00 | 80 | 1014.9 |
| 20260905143220 | 83 | 0 | 1.7 | 4.3 | 0.00 | 0.00 | 0.00 | 81 | 1014.9 |
| 20260905141718 | 82 | 16 | 0.9 | 2.6 | 0.00 | 0.00 | 0.00 | 84 | 1014.8 |
| 20260905140218 | 80 | 250 | 0.0 | 2.6 | 0.00 | 0.00 | 0.00 | 85 | 1014.6 |
| 20260905134717 | 79 | 250 | 0.9 | 3.5 | 0.00 | 0.00 | 0.00 | 87 | 1014.5 |
| 20260905133217 | 78 | 261 | 0.9 | 2.6 | 0.00 | 0.00 | 0.00 | 89 | 1014.5 |
| 20260905131717 | 76 | 261 | 1.7 | 3.5 | 0.00 | 0.00 | 0.00 | 91 | 1014.3 |
| 20260905130218 | 75 | 257 | 1.7 | 3.5 | 0.00 | 0.00 | 0.00 | 92 | 1014.2 |
| 20260905124715 | 74 | 217 | 0.0 | 0.0 | 0.00 | 0.00 | 0.00 | 92 | 1014.1 |
| 20260905123215 | 74 | 217 | 0.0 | 0.0 | 0.00 | 0.00 | 0.00 | 91 | 1014.1 |
| 20260905121709 | 73 | 163 | 0.0 | 0.0 | 0.00 | 0.00 | 0.00 | 91 | 1013.8 |
| 20260905120858 | 73 | 163 | 0.0 | 0.0 | 0.00 | 0.00 | 0.00 | 91 | 1013.6 |
| 20260905114659 | 73 | 163 | 0.0 | 0.0 | 0.00 | 0.00 | 0.00 | 90 | 1013.9 |
| 20260905113157 | 73 | 163 | 0.0 | 0.0 | 0.00 | 0.00 | 0.00 | 90 | 1013.7 |
| 20260905111655 | 73 | 163 | 0.0 | 0.0 | 0.00 | 0.00 | 0.00 | 90 | 1013.6 |
| 20260905110156 | 74 | 163 | 0.0 | 0.0 | 0.00 | 0.00 | 0.00 | 90 | 1013.5 |
| 20260905104653 | 74 | 163 | 0.0 | 0.0 | 0.00 | 0.00 | 0.00 | 90 | 1013.4 |
| 20260905103151 | 74 | 115 | 0.0 | 0.0 | 0.00 | 0.00 | 0.00 | 90 | 1013.3 |
| 20260905102345 | 74 | 164 | 0.0 | 0.0 | 0.00 | 0.00 | 0.00 | 90 | 1013.3 |
| 20260905100147 | 75 | 47 | 0.0 | 0.0 | 0.00 | 0.00 | 0.00 | 90 | 1013.4 |
| 20260905094647 | 75 | 47 | 0.0 | 0.0 | 0.00 | 0.00 | 0.00 | 90 | 1013.5 |
| 20260905093145 | 75 | 188 | 0.0 | 0.0 | 0.00 | 0.00 | 0.00 | 90 | 1013.4 |
| 20260905091642 | 75 | 188 | 0.0 | 0.0 | 0.00 | 0.00 | 0.00 | 90 | 1013.6 |
| 20260905090141 | 75 | 188 | 0.0 | 0.0 | 0.00 | 0.00 | 0.00 | 90 | 1013.8 |
| 20260905084641 | 75 | 188 | 0.0 | 0.0 | 0.00 | 0.00 | 0.00 | 89 | 1013.8 |
| 20260905083140 | 76 | 188 | 0.0 | 0.0 | 0.00 | 0.00 | 0.00 | 89 | 1013.8 |
| 20260905081638 | 76 | 188 | 0.0 | 0.0 | 0.00 | 0.00 | 0.00 | 89 | 1013.8 |
| 20260905080842 | 76 | 188 | 0.0 | 0.0 | 0.00 | 0.00 | 0.00 | 89 | 1013.8 |
| 20260905074639 | 76 | 188 | 0.0 | 0.0 | 0.00 | 0.00 | 0.00 | 88 | 1013.8 |